Lexington, NE

10:03 AM CDT on August 23, 2017 (GMT -0500)
Kelly

Weather History for KLXN - March, 2014

Change the Weather History Date:

Saturday, March 29, 2014

  Actual Average Record
Temperature  
Mean Temperature 44 °F -  
Max Temperature 69 °F 53 °F 73 °F (1998)
Min Temperature 21 °F 29 °F 19 °F (2003)
Degree Days  
Heating Degree Days 20    
Moisture  
Dew Point 25 °F    
Average Humidity 58    
Maximum Humidity 93    
Minimum Humidity 17    
Precipitation  
Precipitation 0.00 in - - ()
Sea Level Pressure  
Sea Level Pressure 30.11 in    
Wind  
Wind Speed 8 mph (SSW)    
Max Wind Speed 25 mph    
Max Gust Speed 36 mph    
Visibility 10 miles    
Events      
Averages and records for this station are not official NWS values.
T = Trace of Precipitation, MM = Missing Value Source: NWS Daily Summary

Daily Weather History Graph

Daily Weather History Graph

Search for Another Location

Airport or City:

Trip Planner

Search our weather history database for the weather conditions in past years. The results will help you decide how hot, cold, wet, or windy it might be!

Date:

Astronomy

Mar. 29, 2014 Rise Set
Actual Time 7:27 AM CDT 8:00 PM CDT
Civil Twilight 6:59 AM CDT 8:28 PM CDT
Nautical Twilight 6:27 AM CDT 9:00 PM CDT
Astronomical Twilight 5:54 AM CDT 9:34 PM CDT
Moon 6:37 AM CDT (3/29) 7:07 PM CDT (3/29)
Length of Visible Light 13h 28m
Length of Day
12h 33m
Waning Crescent, 2% of the Moon is Illuminated
Mar 29
Waning Crescent
Mar 30
New
Apr 7
First Quarter
Apr 15
Full
Apr 22
Last Quarter

Hourly Weather History & Observations

Time (CDT) Temp. Windchill Dew Point Humidity Pressure Visibility Wind Dir Wind Speed Gust Speed Precip Events Conditions
12:15 AM 25.3 °F 19.7 °F 23.0 °F 91% 30.23 in 10.0 mi NNE 4.6 mph - N/A   Clear
12:35 AM 24.6 °F 20.3 °F 22.5 °F 91% 30.23 in 10.0 mi NE 3.5 mph - N/A   Clear
1:15 AM 23.9 °F - 21.7 °F 91% 30.25 in 10.0 mi Calm Calm - N/A   Clear
1:35 AM 23.7 °F 19.3 °F 21.7 °F 92% 30.25 in 10.0 mi West 3.5 mph - N/A   Clear
1:55 AM 23.9 °F - 22.1 °F 93% 30.25 in 10.0 mi Calm Calm - N/A   Clear
2:15 AM 23.4 °F - 21.6 °F 93% 30.25 in 10.0 mi Calm Calm - N/A   Clear
2:35 AM 23.7 °F - 21.9 °F 93% 30.24 in 10.0 mi Calm Calm - N/A   Clear
2:55 AM 21.9 °F - 19.9 °F 92% 30.24 in 10.0 mi Calm Calm - N/A   Clear
3:15 AM 22.6 °F - 20.8 °F 93% 30.24 in 10.0 mi Calm Calm - N/A   Clear
3:35 AM 23.0 °F - 21.2 °F 93% 30.24 in 10.0 mi Calm Calm - N/A   Clear
3:55 AM 22.5 °F - 20.3 °F 91% 30.24 in 10.0 mi Calm Calm - N/A   Clear
4:15 AM 23.0 °F - 21.2 °F 93% 30.24 in 7.0 mi Calm Calm - N/A   Clear
4:35 AM 23.0 °F 18.4 °F 21.2 °F 93% 30.24 in 10.0 mi West 3.5 mph - N/A   Clear
4:55 AM 22.5 °F 16.3 °F 20.8 °F 93% 30.24 in 10.0 mi West 4.6 mph - N/A   Clear
5:15 AM 22.6 °F 16.5 °F 20.7 °F 92% 30.24 in 10.0 mi SW 4.6 mph - N/A   Clear
5:35 AM 23.0 °F 18.4 °F 21.0 °F 92% 30.24 in 10.0 mi SW 3.5 mph - N/A   Clear
5:55 AM 23.0 °F - 21.0 °F 92% 30.24 in 10.0 mi Calm Calm - N/A   Clear
6:15 AM 23.4 °F 18.9 °F 21.2 °F 91% 30.22 in 10.0 mi West 3.5 mph - N/A   Clear
6:35 AM 22.1 °F - 20.1 °F 92% 30.22 in 10.0 mi Calm Calm - N/A   Clear
6:55 AM 22.3 °F - 19.9 °F 91% 30.21 in 10.0 mi Calm Calm - N/A   Clear
7:15 AM 22.1 °F - 19.8 °F 91% 30.22 in 10.0 mi Calm Calm - N/A   Clear
7:35 AM 22.1 °F - 20.3 °F 93% 30.22 in 10.0 mi Calm Calm - N/A   Clear
7:55 AM 24.1 °F 19.7 °F 21.9 °F 91% 30.22 in 10.0 mi WSW 3.5 mph - N/A   Clear
8:15 AM 25.2 °F 20.9 °F 22.6 °F 90% 30.24 in 10.0 mi SW 3.5 mph - N/A   Clear
8:35 AM 26.8 °F - 24.1 °F 90% 30.23 in 10.0 mi Calm Calm - N/A   Clear
8:55 AM 28.9 °F 21.1 °F 25.9 °F 88% 30.24 in 10.0 mi SW 8.1 mph - N/A   Clear
9:15 AM 30.7 °F 24.1 °F 27.3 °F 87% 30.24 in 10.0 mi SW 6.9 mph - N/A   Clear
9:35 AM 32.5 °F 24.2 °F 28.8 °F 86% 30.23 in 10.0 mi SW 10.4 mph - N/A   Clear
9:55 AM 34.3 °F 25.9 °F 29.5 °F 82% 30.21 in 10.0 mi SSW 11.5 mph 18.4 mph N/A   Clear
10:15 AM 35.8 °F 27.8 °F 29.7 °F 78% 30.22 in 10.0 mi SSW 11.5 mph - N/A   Clear
10:35 AM 37.4 °F 28.9 °F 29.8 °F 74% 30.21 in 10.0 mi SW 13.8 mph - N/A   Clear
10:55 AM 39.4 °F 32.3 °F 30.6 °F 71% 30.22 in 10.0 mi SSW 11.5 mph 16.1 mph N/A   Clear
11:15 AM 40.8 °F 33.7 °F 30.6 °F 67% 30.20 in 10.0 mi SSW 12.7 mph - N/A   Clear
11:35 AM 43.5 °F 36.1 °F 31.3 °F 62% 30.20 in 10.0 mi South 16.1 mph - N/A   Clear
11:55 AM 45.9 °F 40.0 °F 32.0 °F 58% 30.18 in 10.0 mi South 12.7 mph 18.4 mph N/A   Clear
12:15 PM 48.4 °F - 31.8 °F 53% 30.16 in 10.0 mi South 15.0 mph - N/A   Clear
12:35 PM 51.1 °F - 32.2 °F 48% 30.16 in 10.0 mi South 17.3 mph 25.3 mph N/A   Clear
12:55 PM 51.8 °F - 32.2 °F 47% 30.14 in 10.0 mi SSW 20.7 mph 26.5 mph N/A   Clear
1:15 PM 54.7 °F - 32.9 °F 44% 30.13 in 10.0 mi SSW 18.4 mph 26.5 mph N/A   Clear
1:35 PM 55.4 °F - 32.2 °F 41% 30.11 in 10.0 mi SSW 19.6 mph - N/A   Clear
1:55 PM 58.1 °F - 32.7 °F 38% 30.10 in 10.0 mi SSW 13.8 mph 26.5 mph N/A   Clear
2:15 PM 61.5 °F - 32.2 °F 33% 30.08 in 10.0 mi SSW 17.3 mph 24.2 mph N/A   Clear
2:35 PM 63.7 °F - 31.6 °F 30% 30.06 in 10.0 mi South 20.7 mph 26.5 mph N/A   Clear
2:55 PM 65.3 °F - 30.6 °F 27% 30.04 in 10.0 mi South 17.3 mph 27.6 mph N/A   Clear
3:15 PM 66.6 °F - 27.0 °F 23% 30.03 in 10.0 mi SSW 23.0 mph 32.2 mph N/A   Clear
3:35 PM 65.5 °F - 25.7 °F 22% 30.02 in 10.0 mi SSW 23.0 mph 33.4 mph N/A   Clear
3:55 PM 66.6 °F - 26.4 °F 22% 30.00 in 10.0 mi SSW 25.3 mph 31.1 mph N/A   Clear
4:10 PM 68.2 °F - 24.6 °F 19% 30.00 in 10.0 mi SSW 24.2 mph 34.5 mph N/A   Clear
4:35 PM 68.2 °F - 23.5 °F 19% 29.98 in 10.0 mi SSW 25.3 mph 35.7 mph N/A   Clear
4:55 PM 68.4 °F - 22.6 °F 18% 29.97 in 10.0 mi SSW 20.7 mph 33.4 mph N/A   Clear
5:15 PM 67.1 °F - 22.6 °F 19% 29.97 in 10.0 mi SSW 20.7 mph 29.9 mph N/A   Clear
5:35 PM 68.0 °F - 21.0 °F 17% 29.96 in 10.0 mi SSW 24.2 mph 33.4 mph N/A   Clear
5:55 PM 68.2 °F - 22.1 °F 17% 29.95 in 10.0 mi SSW 21.9 mph 27.6 mph N/A   Clear
6:10 PM 68.9 °F - 22.1 °F 17% 29.95 in 10.0 mi SSW 24.2 mph 33.4 mph N/A   Clear
6:35 PM 67.5 °F - 21.9 °F 18% 29.93 in 10.0 mi SSW 17.3 mph 24.2 mph N/A   Clear
6:50 PM 67.1 °F - 22.6 °F 19% 29.93 in 10.0 mi South 20.7 mph 25.3 mph N/A   Clear
7:10 PM 65.7 °F - 23.9 °F 21% 29.93 in 10.0 mi South 17.3 mph 23.0 mph N/A   Clear
7:30 PM 62.4 °F - 24.8 °F 24% 29.93 in 10.0 mi South 12.7 mph - N/A   Clear
7:55 PM 60.8 °F - 25.5 °F 26% 29.92 in 10.0 mi South 12.7 mph - N/A   Clear
8:15 PM 60.1 °F - 25.5 °F 27% 29.92 in 10.0 mi SSE 12.7 mph - N/A   Clear
8:35 PM 57.7 °F - 25.7 °F 29% 29.92 in 10.0 mi SSE 11.5 mph - N/A   Clear
8:55 PM 56.8 °F - 26.1 °F 31% 29.92 in 10.0 mi SSE 12.7 mph - N/A   Clear
9:15 PM 56.7 °F - 25.9 °F 31% 29.93 in 10.0 mi SSE 13.8 mph - N/A   Clear
9:35 PM 52.5 °F - 27.9 °F 39% 29.93 in 10.0 mi SE 8.1 mph - N/A   Clear
9:55 PM 52.0 °F - 27.0 °F 38% 29.93 in 10.0 mi SE 10.4 mph - N/A   Clear
10:20 PM 53.4 °F - 26.4 °F 35% 29.93 in 10.0 mi SE 11.5 mph - N/A   Clear
10:35 PM 53.8 °F - 25.9 °F 34% 29.93 in 10.0 mi SSE 16.1 mph 20.7 mph N/A   Clear
10:55 PM 54.9 °F - 25.5 °F 32% 29.92 in 10.0 mi South 19.6 mph 24.2 mph N/A   Clear
11:15 PM 54.7 °F - 25.2 °F 32% 29.92 in 10.0 mi South 21.9 mph 29.9 mph N/A   Clear
11:35 PM 53.4 °F - 25.3 °F 34% 29.92 in 10.0 mi South 20.7 mph - N/A   Clear
11:55 PM 53.8 °F - 25.0 °F 33% 29.92 in 10.0 mi South 20.7 mph 27.6 mph N/A   Clear